Location: Banksville Park
(38.5557°N, 75.1182°W)
Time: 22:12:06
(UTC+00:00)

Cosmos 1844 Rocket - Pass Details

Date: 19 September 2020
Orbit: 823 x 846 km, 71.0° (Epoch: 20 October)

Event Time Altitude Azimuth Distance (km) Brightness Sun altitude
Rises 00:40:43 0° 194° (SSW) 3,341 5.8 -19.6°
Reaches altitude 10° 00:43:08 10° 192° (SSW) 2,413 5.0 -20.0°
Maximum altitude 00:48:38 70° 110° (ESE) 875 2.5 -21.1°
Drops below altitude 10° 00:54:10 10° 27° (NNE) 2,436 5.0 -22.1°
Sets 00:56:37 0° 25° (NNE) 3,376 5.8 -22.5°
